Regional Weather Roundup
Issued by NWS

Home | Current Version | Previous Version | Graphics & Text | Print | Product List | Glossary On
Versions: 1 2 3 4 5 6 7 8 9 10 11 12 13 14 15 16 17 18 19 20 21 22 23 24 25 26 27 28 29 30 31 32 33 34 35 36 37 38 39 40 41 42 43 44 45 46 47 48 49 50
000
ASUS43 KOAX 261802
RWRNE

WEATHER ROUNDUP FOR NEBRASKA
NATIONAL WEATHER SERVICE OMAHA NE
100 PM CDT WED JUL 26 2017

NOTES: SATELLITE DATA IS BEING USED TO AUGMENT CLOUD COVER ABOVE
       12000 FEET.
       "FAIR" INDICATES FEW OR NO CLOUDS BELOW 12,000 FEET WITH NO
       SIGNIFICANT WEATHER AND/OR OBSTRUCTIONS TO VISIBILITY.


NEZ001>004-019>022-054>056-261900-
NEBRASKA PANHANDLE

CITY           SKY/WX    TMP DP  RH WIND       PRES   REMARKS
SCOTTSBLUFF    CLOUDY    79  58  48 N9        30.19F
6HR MIN TEMP:  66; 6HR MAX TEMP:  79; 6HR PCP:  0.01;

ALLIANCE       CLOUDY    73  62  68 NE14      30.18S
6HR MIN TEMP:  67; 6HR MAX TEMP:  73;

CHADRON        CLOUDY    82  56  40 NE8G23    30.16F
6HR MIN TEMP:  69; 6HR MAX TEMP:  83;

GORDON         FAIR      78  61  56 NE14G21   30.16S
6HR MIN TEMP:  67; 6HR MAX TEMP:  78;

KIMBALL        CLOUDY    74  59  59 N14       30.24F
SIDNEY         CLOUDY    78  60  53 N18G24    30.19F
6HR MIN TEMP:  66; 6HR MAX TEMP:  79;

$$

NEZ057>060-069>072-079>082-261900-
SOUTHWEST NEBRASKA

CITY           SKY/WX    TMP DP  RH WIND       PRES   REMARKS
NORTH PLATTE   CLOUDY    75  67  76 N14G23    30.08R
6HR MIN TEMP:  68; 6HR MAX TEMP:  75;

IMPERIAL       CLOUDY    78  64  61 N16       30.10R
6HR MIN TEMP:  68; 6HR MAX TEMP:  79;

LEXINGTON      DRIZZLE   73  70  92 NE9       30.04R
MCCOOK         CLOUDY    78  69  73 N13       30.03R
6HR MIN TEMP:  71; 6HR MAX TEMP:  79; 6HR PCP: TRACE;

OGALLALA       PTSUNNY   83  64  51 NE13G22   30.11S
$$

NEZ005>010-023>029-035>040-094-261900-
NORTH CENTRAL NEBRASKA

CITY           SKY/WX    TMP DP  RH WIND       PRES   REMARKS
VALENTINE      CLOUDY    84  63  49 NE14G22   30.10R
6HR MIN TEMP:  70; 6HR MAX TEMP:  84;

AINSWORTH      CLOUDY    75  69  82 NE7       30.10S
BROKEN BOW     CLOUDY    76  68  76 NE15      30.06S
6HR MIN TEMP:  68; 6HR MAX TEMP:  76;

O`NEILL        CLOUDY    75  72  88 CALM      30.07S
ORD            CLOUDY    74  67  78 N8        30.04R
6HR MIN TEMP:  68; 6HR MAX TEMP:  75; 6HR PCP: TRACE;

THEDFORD       CLOUDY    76  68  76 N9        30.11S
$$

NEZ041-046>049-061>064-073>077-083>087-261900-
SOUTH CENTRAL NEBRASKA

CITY           SKY/WX    TMP DP  RH WIND       PRES   REMARKS
GRAND ISLAND   CLOUDY    76  74  93 NE12      30.01R
6HR MIN TEMP:  70; 6HR MAX TEMP:  78;

AURORA         CLOUDY    78  75  93 N12       30.00R
HASTINGS       CLOUDY    81  71  71 CALM      30.00R
6HR MIN TEMP:  70; 6HR MAX TEMP:  82; 6HR PCP: TRACE;

HEBRON         CLOUDY    79  73  80 S9        29.97R
HOLDREGE       CLOUDY    77  72  84 NE7       30.00S
KEARNEY        CLOUDY    78  72  81 NE9       30.01S
YORK           CLOUDY    77  75  94 N7        29.99R
$$

NEZ011>018-030>034-042>045-261900-
NORTHEAST NEBRASKA

CITY           SKY/WX    TMP DP  RH WIND       PRES   REMARKS
NORFOLK        CLOUDY    77  70  79 N8        30.01S
6HR MIN TEMP:  71; 6HR MAX TEMP:  77; 6HR PCP:  0.03;

ALBION         DRIZZLE   76  72  88 N7        30.03R
BLAIR          HVY RAIN  74  72  93 CALM      30.00R
COLUMBUS       HVY RAIN  72  71  97 SW6       30.01S FOG
FREMONT        TSTM      73  72  96 CALM      30.00R
TEKAMAH        LGT RAIN  78  71  79 W3        29.98S
6HR MIN TEMP:  72; 6HR MAX TEMP:  80; 6HR PCP: TRACE;

WAYNE          CLOUDY    77  77  98 E9        30.02S
$$

NEZ050>053-065>068-078-088>093-261900-
SOUTHEAST NEBRASKA

CITY           SKY/WX    TMP DP  RH WIND       PRES   REMARKS
LINCOLN        CLOUDY    81  75  82 S5        29.97S
6HR MIN TEMP:  74; 6HR MAX TEMP:  81; 6HR PCP:  0.11;

OMAHA EPPLEY   CLOUDY    77  71  82 S7        29.98R
6HR MIN TEMP:  74; 6HR MAX TEMP:  77; 6HR PCP:  0.10;

BEATRICE       CLOUDY    82  73  74 S10       29.98R
FALLS CITY     CLOUDY    78  74  87 S9        29.98R
6HR MIN TEMP:  74; 6HR MAX TEMP:  80; 6HR PCP:  0.33;

NEBRASKA CITY  CLOUDY    78  78  99 S9        29.98S
PLATTSMOUTH    CLOUDY    77  72  85 SE7       29.99S
$$

NEZ044-045-051>053-067-261900-
OMAHA AREA

CITY           SKY/WX    TMP DP  RH WIND       PRES   REMARKS
OMAHA EPPLEY   CLOUDY    77  71  82 S7        29.98R
6HR MIN TEMP:  74; 6HR MAX TEMP:  77; 6HR PCP:  0.10;

BLAIR          HVY RAIN  74  72  93 CALM      30.00R
FREMONT        TSTM      73  72  96 CALM      30.00R
MILLARD        LGT RAIN  77  74  91 SE5       29.99R
OFFUTT AFB     CLOUDY    77  72  84 SE9       29.98R
PLATTSMOUTH    CLOUDY    77  72  85 SE7       29.99S
WAHOO          HVY RAIN  73  72  97 NE3       30.00R
$$



USA.gov is the U.S. government's official web portal to all federal, state and local government web resources and services.